483P/PanSTARRS (2022)

Japanese version
Home page
Updated on April 9, 2024

---------------------------------------------------------------------

* Profile

Designation 483P/2020 Y6
Recovery Date December 24, 2020
Magnitude 25.2 mag
Recoverer H. H. Hsieh and M. Micheli (Gemini North Observatory)

* Orbital Elements

P/2020 Y6-A (PANSTARRS)
                    Epoch = 2022 Mar.  2.0 TT
     T = 2022 Feb. 20.66426 TT        Peri. =  46.98806
     e = 0.2277366                    Node  = 199.81128 2000.0
     q = 2.4496763 AU                 Incl. =  14.32870
       a =  3.1720735 AU   n = 0.17445733   P =   5.65 years

P/2020 Y6-B (PANSTARRS)
                    Epoch = 2022 Mar.  2.0 TT
     T = 2022 Feb. 20.47538 TT        Peri. =  46.98588
     e = 0.2276851                    Node  = 199.81101 2000.0
     q = 2.4497382 AU                 Incl. =  14.32988
       a =  3.1719421 AU   n = 0.17446816   P =   5.65 years

* Magnitudes Graph

        Component A
        m1 = 16.5 + 5 log d + 10.0 log r

        Component B
        m1 = 17.0 + 5 log d + 10.0 log r

---------------------------------------------------------------------

The orbital elements are printed on CBET 5367.
The magnitudes graphs are made with Comet for Windows.

---------------------------------------------------------------------

Copyright(C) Seiichi Yoshida (comet@aerith.net). All rights reserved.